Погода в Варениковской

Россия / Краснодарский край     45°07′11″N   37°38′18″E
темп.,
°C
ветер,
м/с
пор.,
м/с
влажн.,
%
обл.,
%
осадки,
мм/ч
давл.,
гПа
погр.,
м
12 мая, ср
ср1200:00+7юз119023 0.1 101413
03:00+8ю118594 0.3 101314
06:00+10ю3593100 0.4 1014374
09:00+11ю7128292 0.7 1014653
12:00+15ю6856100 0.0 1014952
15:00+15ююз3457100 0.0 1014730
18:00+15ссв226710 0.0 1014311
21:00+9всв11895 0.0 101411
13 мая, чт
чт1300:00+8в11910 0.0 101311
03:00+8всв11930 0.0 101211
06:00+9вюв11952 0.0 101317
09:00+16в35745 0.0 1012338
12:00+21в445736 0.0 1012651
15:00+23в5558100 0.0 1011698
18:00+21в4974100 0.0 1010424
21:00+16вюв228985 0.0 101114
14 мая, пт
пт1400:00+16юв22890 0.0 101012
03:00+16юз11740 0.0 101011
06:00+16ююз11705 0.0 101011
09:00+23всв115681 0.0 1010285
12:00+28ююз25405 0.0 10101132
15:00+28зсз124285 0.0 10101078
18:00+23сз34723 0.0 1010186
21:00+16зсз11750 0.0 101113
15 мая, сб
сб1500:00+16з22657 0.0 101114
03:00+16зюз11615 0.0 101211
06:00+15зюз11745 0.0 101311
09:00+21сз2257100 0.0 1014379
12:00+24ссз2249100 0.0 1014780
15:00+25с324793 0.0 10141057
18:00+22с346895 0.0 1013214
21:00+16ссв1178100 0.0 101311
16 мая, вс
вс1600:00+15в11800 0.0 101211
03:00+14в22873 0.0 101112
06:00+15в11885 0.0 101129
09:00+21в610816 0.0 1009471
12:00+25в68695 0.0 1007778
15:00+27всв6860100 0.0 10061239
18:00+25всв7117510 0.0 1004854
21:00+20в4139365 0.0 1004341